{"data":{"norad_id":65670,"epoch":"2026-09-20T20:55:33.152736Z","epoch_age_seconds":76593,"freshness":"FRESH","line1":"1 65670U 25211U   26263.87191149  .00019082  00000+0  59170-3 0  9998","line2":"2 65670  97.2881 304.1492 0000378  88.6184 271.5102 15.33455797 56588","mean_motion":15.33455797,"eccentricity":3.78e-5,"inclination_deg":97.2881,"raan_deg":304.1492,"arg_perigee_deg":88.6184,"mean_anomaly_deg":271.5102,"bstar":0.0005917,"rev_number":5658,"period_min":93.905543467061,"perigee_km":465.25236049465,"apogee_km":465.76974028726,"semimajor_km":6843.648050391,"source":"CELESTRAK","updated_at":"2026-09-21T09:00:35.682943Z"}}